Regional Weather Roundup
Issued by NWS

Home | Current Version | Previous Version | Text Only | Print | Product List | Glossary Off
Versions: 1 2 3 4 5 6 7 8 9 10 11 12 13 14 15 16 17 18 19 20 21 22 23 24 25 26 27 28 29 30 31 32 33 34 35 36 37 38 39 40 41 42 43 44 45 46 47 48 49 50

000
ASUS43 KMPX 041610
RWRMN
WEATHER ROUNDUP FOR MINNESOTA
NATIONAL WEATHER SERVICE TWIN CITIES/CHANHASSEN MN
1100 AM CDT WED MAY 04 2016


NOTE: "FAIR" INDICATES FEW OR NO CLOUDS BELOW 12,000 FEET WITH NO
SIGNIFICANT WEATHER AND/OR OBSTRUCTIONS TO VISIBILITY. N/A MEANS
CURRENT SKY AND/OR WEATHER CONDITIONS ARE NOT AVAILABLE.

MNZ060>063-068>070-041700-
   Twin Cities Metro

CITY           SKY/WX    TMP DP  RH WIND       PRES   REMARKS
TWIN CITIES    MOSUNNY   59  34  39 N15G23    29.98F
ST PAUL        MOSUNNY   58  35  42 N14G22    29.98F
CRYSTAL        MOSUNNY   61  34  36 N12G24    29.97F
EDEN PRAIRIE   MOSUNNY   58  34  40 NW18G28   29.97F
SOUTH ST PAUL  MOSUNNY   58  33  38 NW14G22   29.97S
LAKE ELMO      FAIR      55  36  47 N15G22    29.98S
$$
MNZ001>005-007-008-013>017-022>024-027-028-041700-
   Northwest Minnesota

CITY           SKY/WX    TMP DP  RH WIND       PRES   REMARKS
BEMIDJI        SUNNY     53  31  42 N12G17    30.05F
HALLOCK        CLOUDY    55  34  44 CALM      30.09F
ROSEAU         SUNNY     55  28  35 N8G16     30.08S
WARROAD        SUNNY     48  34  57 E7        30.09S
THIEF RVR FALL SUNNY     55  28  35 N9G16     30.09F
CROOKSTON      SUNNY     55  36  47 N8        30.10F
FOSSTON        SUNNY     55  27  33 N9        30.08F
DETROIT LAKES  SUNNY     55  36  47 N12G23    30.07S
MOORHEAD       SUNNY     55  36  47 NW9       30.10S
PARK RAPIDS    SUNNY     58  30  34 NW15G22   30.04F
MAHNOMEN       FAIR      55  33  41 N13       30.07F
$$
MNZ006-009>011-018-025>026-041700-
   North Central Minnesota

CITY           SKY/WX    TMP DP  RH WIND       PRES   REMARKS
BAUDETTE       SUNNY     52  26  36 N12       30.06F
FLAG ISLAND    SUNNY     46  27  46 N7        30.07S
INTL FALLS     SUNNY     50  23  34 NE12      30.04S
WASKISH        SUNNY     54  25  32 NW7G16    30.06S
BIG FORK       SUNNY     54  21  28 NW8       30.03S
LONGVILLE      SUNNY     54  27  35 NW8       30.03S
GRAND RAPIDS   SUNNY     52  25  35 N14       30.03S
CRANE LAKE     SUNNY     46  27  46 N7        30.03S
ORR            SUNNY     52  19  28 NW12      29.99S
COOK           SUNNY     52  21  30 NW12G17   30.01R
WALKER         FAIR      53  28  39 NW13G18   30.04S
$$
MNZ012-019>021-037-041700-
   Northeast Minnesota

CITY           SKY/WX    TMP DP  RH WIND       PRES   REMARKS
DULUTH         SUNNY     53  25  33 N15G24    29.96R
ELY            SUNNY     48  23  37 N6        29.98S
HIBBING        SUNNY     51  22  31 NW16      29.99S
EVELETH        SUNNY     52  21  30 N10G18    29.99F
DULUTH HARBOR  SUNNY     54  30  40 N13       29.97F
TWO HARBORS    SUNNY     57  30  35 N9        29.94S
SILVER BAY     SUNNY     54  21  28 N6G17     29.93F
GRAND MARAIS     N/A     50  30  46 MISG      29.96S
G MARAIS ARPRT PTSUNNY   45  27  49 N15G22    29.94S
$$
MNZ029>031-032-039>041-046>048-054>057-064-041700-
   West Central Minnesota

CITY           SKY/WX    TMP DP  RH WIND       PRES   REMARKS
FERGUS FALLS   SUNNY     57  37  47 NW14G20   30.05F
WHEATON        SUNNY     61  39  44 NW10G17   30.09F
MORRIS         SUNNY     61  36  39 NW16      30.05F
ALEXANDRIA     SUNNY     58  33  39 NW18      30.05F
ELBOW LAKE     FAIR      56  37  48 NW14      30.06F
WADENA         SUNNY     55  34  44 N15G22    30.04S
GLENWOOD       SUNNY     59  34  38 NW17G24   30.05S
APPLETON       SUNNY     61  34  36 NW16      30.06S
BENSON         SUNNY     63  30  29 N20G25    30.05F
ORTONVILLE     SUNNY     57  36  44 NW12      30.07F
MADISON        SUNNY     61  36  39 NW10G18   30.07S
WILLMAR        FAIR      61  34  36 N14       30.05S
$$
MNZ033>034-036-042>043-049>051-058-059-041700-
   Central Minnesota

CITY           SKY/WX    TMP DP  RH WIND       PRES   REMARKS
ST CLOUD       SUNNY     58  33  39 NW14G26   29.99F
SAUK CENTRE    FAIR      57  35  42 NW17G23   30.03F
PAYNESVILLE    SUNNY     58  32  37 N10G23    30.03F
AITKIN         SUNNY     59  27  29 NW9       29.99S
PINE RIVER     SUNNY     54  36  50 NW12      30.06S
BRAINERD       SUNNY     55  32  41 N16G23    30.02S
STAPLES        SUNNY     55  30  38 NW15G24   30.03F
LONG PRAIRIE   FAIR      55  34  44 NW13G21   30.03F
LITTLE FALLS   SUNNY     55  32  41 NW15G25   30.01F
LITCHFIELD     SUNNY     61  36  39 NW16G22   30.02S
BUFFALO        SUNNY     57  32  38 N10G22    30.01S
MAPLE LAKE     SUNNY     59  37  43 NW17      30.02S
HUTCHINSON     CLOUDY    59  36  41 NW15G23   30.02F
$$
MNZ037-044-045-052-053-041700-
   East Central Minnesota

CITY           SKY/WX    TMP DP  RH WIND       PRES   REMARKS
PRINCETON      SUNNY     61  34  36 NW17      29.99F
MORA           MOSUNNY   55  34  44 NW13G18   30.00S
CAMBRIDGE      SUNNY     57  37  47 N12G24    29.97S
RUSH CITY      SUNNY     56  33  42 N16G22    29.98S
MOOSE LAKE     SUNNY     54  32  43 N10G23    29.96S
HINCKLEY       CLOUDY    55  32  41 N16G23    29.97F
CLOQUET        SUNNY     54  23  30 N15G24    29.97S
MCGREGOR       SUNNY     54  30  40 N15G23    30.00S
$$
MNZ071>073-080-081-089-090-097-098-041700-
   Southwest Minnesota

CITY           SKY/WX    TMP DP  RH WIND       PRES   REMARKS
MONTEVIDEO     SUNNY     63  36  36 N13G18    30.07F
GRANITE FALLS  SUNNY     60  36  39 NW16      30.07S
CANBY          SUNNY     61  39  44 W13       30.08F
MARSHALL       SUNNY     57  34  41 NW14G22   30.06F
REDWOOD FALLS  SUNNY     59  32  36 N13G22    30.03F
OLIVIA         SUNNY     59  34  38 N14G23    30.03S
PIPESTONE      SUNNY     57  32  38 N9        30.06F
WINDOM         SUNNY     57  32  38 N10G17    30.04F
WORTHINGTON    SUNNY     55  34  45 N14       30.07S
JACKSON        SUNNY     55  32  41 N10G17    30.04S
TRACY          SUNNY     58  35  42 N14G20    30.06S
SLAYTON        SUNNY     55  33  42 NW14      30.06F
$$
MNZ065>067-074>077-082>085-091>093-041700-
   South Central Minnesota

CITY           SKY/WX    TMP DP  RH WIND       PRES   REMARKS
MANKATO        SUNNY     57  32  38 N16G25    30.00F
NEW ULM        SUNNY     57  30  35 N9G18     30.02S
ST JAMES       SUNNY     54  28  37 NW10G22   30.03F
FAIRMONT       SUNNY     55  32  41 NW14G22   30.02S
GLENCOE        SUNNY     58  37  45 NW13G20   30.00F
FARIBAULT      SUNNY     57  32  38 NW16      29.99F
OWATONNA       SUNNY     55  30  38 N17G28    29.98S
WASECA         SUNNY     55  32  41 N20G25    30.00F
ALBERT LEA     SUNNY     55  28  35 N16G24    29.97F
$$
MNZ078>079-086>088-094>096-041700-
   Southeast Minnesota

CITY           SKY/WX    TMP DP  RH WIND       PRES   REMARKS
ROCHESTER      MOSUNNY   56  35  45 NW21G29   29.95F
RED WING       MOSUNNY   55  30  38 N14G25    29.96R
STANTON        MOSUNNY   58  33  39 N17       29.96S
DODGE CENTER   MOSUNNY   55  30  38 N16G25    29.96S
WINONA         MOSUNNY   55  34  44 N15G22    29.92F
AUSTIN         SUNNY     55  32  41 N20G25    29.96F
PRESTON        MOSUNNY   53  33  47 N18G26    29.94S
$$
ABBREVIATIONS USED IN REMARKS
   TC - TEMPERATURES IN CELSIUS
  WCI - WIND CHILL INDEX
   HX - HEAT INDEX
  VSB - VISIBILITY
$$




USA.gov is the U.S. government's official web portal to all federal, state and local government web resources and services.